Location: Laan Hart van Zuid
(52.2563°N, 6.7904°E)
Time: 03:37:17
(UTC+01:00)

ARIANE 6 FM1 Upper Stage - Pass Details

Date: 22 January 2026
Orbit: 522 x 608 km, 62.0° (Epoch: 18 February)

Event Time Altitude Azimuth Distance (km) Brightness Sun altitude
Rises 20:11:44 0° 225° (SW) 2,696 6.7 -28.6°
Reaches altitude 10° 20:13:57 10° 225° (SW) 1,795 5.7 -28.9°
Enters shadow 20:15:14 20° 224° (SW) 1,287 4.8 -29.1°
